Location: Unspecified
(0.0000°N, 0.0000°E)
Time: 10:53:10
(UTC+00:00)

A-11 Canister half - Pass Details

Date: 06 August 2021
Orbit: 1515 x 1685 km, 47.2° (Epoch: 27 September)

Event Time Altitude Azimuth Distance (km) Brightness Sun altitude
Rises 10:33:40 0° 194° (SSW) 4,658 11.3 61.9°
Reaches altitude 10° 10:37:42 10° 179° (S) 3,673 10.9 62.7°
Maximum altitude 10:44:20 22° 132° (SE) 2,866 10.8 63.9°
Drops below altitude 10° 10:50:59 10° 86° (E) 3,708 11.5 65.2°
Sets 10:55:01 0° 71° (ENE) 4,713 11.9 65.9°
